Regional Weather Roundup
Issued by NWS

Home | Current Version | Previous Version | Text Only | Print | Product List | Glossary On
Versions: 1 2 3 4 5 6 7 8 9 10 11 12 13 14 15 16 17 18 19 20 21 22 23 24 25 26 27 28 29 30 31 32 33 34 35 36 37 38 39 40 41 42 43 44 45 46 47 48 49 50
000
ASUS43 KMPX 111101
RWRMN
WEATHER ROUNDUP FOR MINNESOTA
NATIONAL WEATHER SERVICE TWIN CITIES/CHANHASSEN MN
600 AM CDT FRI JUL 11 2014


NOTE: "FAIR" INDICATES FEW OR NO CLOUDS BELOW 12,000 FEET WITH NO
SIGNIFICANT WEATHER AND/OR OBSTRUCTIONS TO VISIBILITY. N/A MEANS
CURRENT SKY AND/OR WEATHER CONDITIONS ARE NOT AVAILABLE.

MNZ060>063-068>070-111200-
   Twin Cities Metro

CITY           SKY/WX    TMP DP  RH WIND       PRES   REMARKS
TWIN CITIES    CLOUDY    72  60  66 S9        29.98R
ST PAUL        CLOUDY    71  60  68 S13       29.98R
CRYSTAL        LGT RAIN  73  60  63 S14       29.95R
BLAINE         LGT RAIN  73  63  68 S16G24    29.95S
LAKEVILLE      MOCLDY    68  59  73 S12G17    29.97F
EDEN PRAIRIE   RAIN      69  63  81 S7G18     29.96R
SOUTH ST PAUL  MOCLDY    71  59  65 S8        29.98R
LAKE ELMO      CLOUDY    70  61  73 S12G18    30.00R
$$
MNZ001>005-007-008-013>017-022>024-027-028-111200-
   Northwest Minnesota

CITY           SKY/WX    TMP DP  RH WIND       PRES   REMARKS
BEMIDJI        CLOUDY    66  65  96 S5        29.86S
HALLOCK        CLEAR     63  61  94 S6        29.79S
ROSEAU         CLEAR     64  61  88 S7        29.82R HAZE
WARROAD        PTCLDY    66  63  88 S8        29.82S
THIEF RVR FALL   N/A    N/A N/A N/A MISG        N/A
CROOKSTON      MOCLDY    66  64  94 CALM      29.83R FOG
FOSSTON        CLOUDY    66  64  94 CALM      29.85R
DETROIT LAKES  MOCLDY    68  64  88 SE10      29.87R
MOORHEAD       CLEAR     72  72 100 SE10      29.82R
PARK RAPIDS    CLOUDY    65  65 100 S13       29.88R
$$
MNZ006-009>011-018-025>026-111200-
   North Central Minnesota

CITY           SKY/WX    TMP DP  RH WIND       PRES   REMARKS
BAUDETTE       CLEAR     65  63  93 S3        29.84S
FLAG ISLAND    MOCLDY    68  64  88 S10       29.80S FOG
INTL FALLS     PTCLDY    65  63  93 S5        29.86S
WASKISH        PTCLDY    66  64  94 CALM      29.85R
BIG FORK       PTCLDY    66  63  88 S6        29.89S
LONGVILLE      CLOUDY    66  64  94 S6        29.89S
GRAND RAPIDS   MOCLDY    64  61  88 S12G18    29.90S
CRANE LAKE     MOCLDY    64  63  94 S5        29.92S
ORR            LGT RAIN  64  61  88 SE7       29.89S
COOK           RAIN      64  63  94 S9        29.92F
$$
MNZ012-019>021-037-111200-
   Northeast Minnesota

CITY           SKY/WX    TMP DP  RH WIND       PRES   REMARKS
DULUTH         LGT RAIN  63  60  90 S17       29.95S FOG
ELY            RAIN      63  61  94 S6        29.95S
HIBBING        CLOUDY    65  62  90 SE5       29.92F
EVELETH        CLOUDY    63  61  94 S5        29.95F
DULUTH HARBOR  RAIN      55  54  94 N14       29.97S
TWO HARBORS    LGT RAIN  57  54  88 CALM      29.96S
SILVER BAY     CLOUDY    57  57 100 CALM      29.96S
GRAND MARAIS     N/A     46  42  86 CALM      29.99S
G MARAIS ARPRT CLOUDY    57  54  88 S3        30.02R
$$
MNZ029>031-032-039>041-046>048-054>057-064-111200-
   West Central Minnesota

CITY           SKY/WX    TMP DP  RH WIND       PRES   REMARKS
WHEATON        CLEAR     70  66  88 S8        29.84S
MORRIS         PTCLDY    72  66  83 S5        29.86R
ALEXANDRIA     CLOUDY    70  66  87 S8        29.90R
ELBOW LAKE     CLOUDY    70  66  88 S8        29.86R
WADENA         CLOUDY    64  63  94 SE7       29.88S
GLENWOOD       PTCLDY    68  66  94 S12       29.90R
APPLETON       CLOUDY    73  66  78 S6        29.86R
BENSON         TSTM      70  66  88 SW7       29.87R
ORTONVILLE     CLOUDY    73  66  78 S3        29.85R
MADISON        PTCLDY    75  66  73 SW14G21   29.85S
WILLMAR        FAIR      70  64  83 CALM      29.91S
$$
MNZ033>034-036-042>043-049>051-058-059-111200-
   Central Minnesota

CITY           SKY/WX    TMP DP  RH WIND       PRES   REMARKS
ST CLOUD       TSTM      68  64  87 NW10G18   29.92R
SAUK CENTRE    CLOUDY    67  65  92 NE6       29.91R
PAYNESVILLE    TSTM      65  63  91 SE9G21    29.90S
AITKIN         RAIN      66  61  82 S6        29.88F
PINE RIVER     DRIZZLE   63  63 100 S6        29.93S
BRAINERD       TSTM      69  63  81 S8        29.91S
STAPLES        CLOUDY    63  63 100 SE8       29.89S
LONG PRAIRIE   LGT RAIN  64  64 100 SE8       29.92S
LITTLE FALLS   LGT RAIN  64  63  94 SE6       29.91S
LITCHFIELD     CLOUDY    68  66  94 S7        29.91S
BUFFALO        CLOUDY    68  62  80 S14G22    29.92F
MAPLE LAKE     CLOUDY    68  65  91 S10G20    29.91F
$$
MNZ037-044-045-052-053-111200-
   East Central Minnesota

CITY           SKY/WX    TMP DP  RH WIND       PRES   REMARKS
PRINCETON      CLOUDY    68  64  88 SE13      29.90F THUNDER
MORA           TSTM      61  59  94 SE5       29.96F
CAMBRIDGE      TSTM      68  59  73 SE10G17   29.91F
RUSH CITY      TSTM      65  62  90 SE8       29.95F
MOOSE LAKE     RAIN      63  61  94 S12G18    29.91F
HINCKLEY       TSTM      64  63  94 CALM      29.99R
CLOQUET        CLOUDY    63  61  94 SE6       29.94F
MCGREGOR       CLOUDY    64  63  94 S8        29.92S
$$
MNZ071>073-080-081-089-090-097-098-111200-
   Southwest Minnesota

CITY           SKY/WX    TMP DP  RH WIND       PRES   REMARKS
MONTEVIDEO     CLOUDY    72  66  83 SW8       29.88S
GRANITE FALLS  LGT RAIN  70  66  87 S10G17    29.89S
CANBY          MOCLDY    72  65  79 SW16G26   29.86F
MARSHALL       MOCLDY    72  64  78 SW25G32   29.85F
REDWOOD FALLS  MOCLDY    70  66  87 S16G22    29.90R
OLIVIA         MOCLDY    70  64  83 S8        29.90R
PIPESTONE      MOCLDY    70  66  88 S17G24    29.90F
WINDOM         CLOUDY    68  64  88 S15G24    29.95R
WORTHINGTON    CLOUDY    70  64  83 S16G26    29.93F
JACKSON        CLOUDY    68  61  77 S14G26    29.96F
TRACY          CLOUDY    70  67  90 S17G29    29.89S
SLAYTON        CLOUDY    68  66  93 S14G20    29.93F
$$
MNZ065>067-074>077-082>085-091>093-111200-
   South Central Minnesota

CITY           SKY/WX    TMP DP  RH WIND       PRES   REMARKS
MANKATO        CLOUDY    68  59  73 S17G24    29.97F
NEW ULM        CLOUDY    66  66 100 S14       29.92F
ST JAMES       CLOUDY    68  63  83 S18G24    29.96S
FAIRMONT       CLOUDY    66  59  77 S18G25    29.98F
GLENCOE        CLOUDY    69  61  77 S8G18     29.95R
FARIBAULT      MOCLDY    72  55  56 S14G22    29.99F
OWATONNA       DRIZZLE   70  57  64 S16G23    30.00F
WASECA         LGT RAIN  66  55  68 S18       30.00F
ALBERT LEA     CLOUDY    68  57  68 S14G22    30.03F
$$
MNZ078>079-086>088-094>096-111200-
   Southeast Minnesota

CITY           SKY/WX    TMP DP  RH WIND       PRES   REMARKS
ROCHESTER      CLOUDY    66  58  75 S15       30.08F
RED WING       CLOUDY    70  57  64 S9G21     30.01F
STANTON        MOCLDY    70  58  67 S10G17    29.98S
DODGE CENTER   CLOUDY    68  57  68 S21       30.05F
WINONA         CLOUDY    70  59  68 S6        30.07S
AUSTIN         CLOUDY    66  57  72 S12G18    30.06F
PRESTON        CLOUDY    65  58  78 S12       30.10S
$$
ABBREVIATIONS USED IN REMARKS
   TC - TEMPERATURES IN CELSIUS
  WCI - WIND CHILL INDEX
   HX - HEAT INDEX
  VSB - VISIBILITY
$$


USA.gov is the U.S. government's official web portal to all federal, state and local government web resources and services.